This demonstration page uses our WeatherBlox Daily Observations layout. Learn more.

Left ArrowRight Arrow

Hourly Observations for May 8, 2018

Temp ( °F °C ) Dew Point ( °F °C ) Humidity (%) Winds ( mph kmh ) Pressure ( in mb ) Visibility ( mi km ) Precip ( " mm )
12:53 am 00:53 Mostly Cloudy 50 10 46 7.8 86 86 S 6 9 30.01 1016 10 16 N/A
1:53 am 01:53 Mostly Clear 50 10 47 8.3 89 89 N N/A 30.03 1017 10 16 N/A
2:53 am 02:53 Mostly Cloudy 51 10.6 47 8.3 86 86 S 3 6 30.03 1017 10 16 N/A
3:53 am 03:53 Mostly Cloudy 51 10.6 47 8.3 86 86 S 7 11 30.03 1017 10 16 N/A
4:53 am 04:53 Clear 50 10 46 7.8 86 86 ENE 3 6 30.02 1017 10 16 N/A
5:53 am 05:53 Mostly Sunny 52 11.1 47 8.3 83 83 E 3 6 30.01 1016 10 16 N/A
6:53 am 06:53 Sunny 54 12.2 48 8.9 80 80 SW 9 15 30.03 1017 10 16 N/A
7:53 am 07:53 Cloudy 55 12.8 50 10 83 83 SW 12 19 30.05 1018 10 16 N/A
8:53 am 08:53 Cloudy 59 15 50 10 72 72 SSW 10 17 30.03 1017 10 16 N/A
9:53 am 09:53 Mostly Sunny 66 18.9 49 9.4 54 54 WSW 16 26 30.02 1017 10 16 N/A
10:53 am 10:53 Sunny 70 21.1 48 8.9 46 46 SW 17 28 30.00 1016 10 16 N/A
11:53 am 11:53 Partly Cloudy 74 23.3 45 7.2 36 36 W 17 28 29.99 1016 10 16 N/A
12:53 pm 12:53 Sunny 73 22.8 43 6.1 34 34 W 12 19 29.97 1015 10 16 N/A
1:53 pm 13:53 Mostly Sunny 74 23.3 42 5.6 32 32 W 17 28 29.94 1014 10 16 N/A
2:29 pm 14:29 Cloudy with Rain 64 17.8 47 8.3 54 54 SW 9 15 29.91 1013 2 3 0.14 3.56
2:33 pm 14:33 Cloudy with Nearby Thunderstorms 64 17.8 52 11.1 65 65 SSW 9 15 29.91 1013 5 8 0.14 3.56
2:53 pm 14:53 Cloudy 66 18.9 53 11.7 63 63 SW 15 24 29.96 1015 10 16 0.14 3.56
3:53 pm 15:53 Cloudy 72 22.2 42 5.6 34 34 NW 16 26 29.93 1014 10 16 N/A
4:53 pm 16:53 Partly Cloudy 76 24.4 39 3.9 26 26 WNW 21 33 29.92 1013 10 16 N/A
5:53 pm 17:53 Mostly Sunny 75 23.9 39 3.9 27 27 NW 20 31 29.92 1013 10 16 N/A
6:53 pm 18:53 Sunny 73 22.8 39 3.9 29 29 NW 21 33 29.92 1013 10 16 N/A
7:53 pm 19:53 Sunny 71 21.7 39 3.9 31 31 NW 18 30 29.93 1014 10 16 N/A
8:53 pm 20:53 Clear 65 18.3 45 7.2 49 49 N 12 19 29.96 1015 10 16 N/A
9:53 pm 21:53 Clear 61 16.1 45 7.2 56 56 NNW 3 6 29.98 1015 10 16 N/A

Powered by AerisWeather